Location: Kershaw
(34.5481°N, 80.5823°W)
Time: 00:39:17
(UTC+00:00)

A-11 Canister half - Pass Details

Date: 07 October 2022
Orbit: 1524 x 1685 km, 47.3° (Epoch: 05 December)

Event Time Altitude Azimuth Distance (km) Brightness Sun altitude
Rises 02:22:13 0° 304° (NW) 4,720 12.4 -41.5°
Reaches altitude 10° 02:25:16 10° 302° (WNW) 3,751 11.7 -42.1°
Enters shadow 02:32:42 56° 272° (W) 1,843 9.4 -43.4°
